Flag for Germany Weather past 2 weeks in Filderstadt, Baden-Württemberg, Germany

Now
46 °F

Passing clouds.


Feels Like: 43 °F
Forecast: 35 / 56 °F
Wind: 7 mph from Northeast

Location: Stuttgart-Echterdingen

Current Time: Apr 18, 2015 at 10:14:22 AM

Latest Report: Apr 18, 2015 at 10:00 AM


Visibility: 31 mi

Pressure: 30.24 "Hg

Humidity: 56%

Dew point: 31 °F

Location of FilderstadtLocation

Historic Weather in Filderstadt — Graph

°F

Filderstadt temperature yesterday

Maximum temperature yesterday: 62 °F (at 10:00 AM)
Minimum temperature yesterday: 48 °F (at 11:00 PM)
Average temperature yesterday: 56 °F

Past Weeks' High & Low Weather Summary

 TemperatureHumidityPressure
High77 °F (Apr 15, 4:00 PM)93% (Apr 4, 6:00 PM)30.66 "Hg (Apr 4, 6:00 PM)
Low28 °F (Apr 6, 6:00 AM)17% (Apr 15, 3:00 PM)29.86 "Hg (Apr 16, 7:00 PM)
Average50 °F61%30.24 "Hg
* Reported Apr 3 9:00 AM — Apr 18 9:00 AM, Filderstadt, Weather by CustomWeather, © 2015

Note: Actual official high and low records may vary slightly from our data, if they occured in-between our weather recording intervals... More about our weather records

Advertising

Filderstadt weather history for previous 24 hours

 ConditionsComfort  
Time TempWeatherWind HumidityBarometerVisibility
9:00 AM
Sat, Apr 18
44 °FScattered clouds.2 mph62%30.23 "Hg31 mi
8:00 AM41 °FPartly sunny.1 mph71%30.23 "Hg31 mi
7:00 AM40 °FPartly sunny.1 mph71%30.22 "Hg31 mi
6:00 AM40 °FPassing clouds.2 mph68%30.20 "Hg28 mi
4:00 AM42 °FPassing clouds.3 mph65%30.18 "Hg28 mi
3:00 AM43 °FPassing clouds.3 mph63%30.16 "Hg28 mi
2:00 AM43 °FOvercast.3 mph62%30.16 "Hg28 mi
1:00 AM45 °FOvercast.3 mph59%30.14 "Hg25 mi
12:00 AM46 °FPassing clouds.6 mph57%30.12 "Hg25 mi
11:00 PM
Fri, Apr 17
48 °FPassing clouds.7 mph56%30.08 "Hg22 mi
10:00 PM50 °FOvercast.3 mph66%30.05 "Hg19 mi
9:00 PM50 °FOvercast.3 mph72%30.03 "Hg16 mi
8:00 PM51 °FOvercast.5 mph73%30.00 "Hg15 mi
7:00 PM51 °FOvercast.6 mph77%29.97 "Hg12 mi
6:00 PM53 °FLight rain. Overcast.7 mph82%29.96 "Hg11 mi
4:00 PM57 °FOvercast.9 mph64%29.90 "Hg16 mi
3:00 PM60 °FOvercast.9 mph63%29.89 "Hg19 mi
2:00 PM60 °FOvercast.8 mph66%29.89 "Hg22 mi
1:00 PM59 °FOvercast.10 mph68%29.90 "Hg22 mi
12:00 PM61 °FOvercast.8 mph66%29.88 "Hg19 mi
11:00 AM61 °FOvercast.6 mph69%29.88 "Hg22 mi
10:00 AM62 °FPartly sunny.3 mph64%29.87 "Hg22 mi
Weather by CustomWeather, © 2015

See weather overviewHow to use our weather pages